Kansas Department of Transportation
RWIS(Road and Runway Information System) Map and Weather Data





Station
Surface
Air
Wind
Site IDSensor TypeLocationTemperature (°F)Temperature (°F)Humidity (%)Speed (mi/h)Gusts (mi/h)DirectionTime
123002AtmosphericBonner Springs 737714ENEAug 23 2019 1:40AM
123002ApproachBonner Springs81     Aug 23 2019 1:40AM
123002DeckBonner Springs77     Aug 23 2019 1:40AM
123014AtmosphericBull Creek 738947ESEAug 23 2019 1:40AM
123014DeckBull Creek75     Aug 23 2019 1:40AM
123014DepartureBull Creek77     Aug 23 2019 1:40AM
123015AtmosphericLeavenworth 728846ESEAug 23 2019 1:40AM
123015DeckLeavenworth75     Aug 23 2019 1:40AM
123015DepartureLeavenworth75     Aug 23 2019 1:40AM
123020AtmosphericMayetta 709246EAug 23 2019 1:40AM
123020RoadwayMayettaUnavailable     Aug 23 2019 1:40AM
123020DeckMayettaUnavailable     Aug 23 2019 1:40AM
505000AtmosphericKTA 1 729024ENEAug 23 2019 1:30AM
505000ApproachKTA 173     Aug 23 2019 1:30AM
505000DeckKTA 177     Aug 23 2019 1:30AM
505001AtmosphericKTA 2 729901NEAug 23 2019 1:30AM
505001ApproachKTA 275     Aug 23 2019 1:30AM
505001DeckKTA 277     Aug 23 2019 1:30AM
505002AtmosphericKTA 3 729912ENEAug 23 2019 1:30AM
505002ApproachKTA 377     Aug 23 2019 1:30AM
505002DeckKTA 373     Aug 23 2019 1:30AM
505003AtmosphericKTA 4 728924NAug 23 2019 1:30AM
505003ApproachKTA 475     Aug 23 2019 1:30AM
505003DeckKTA 475     Aug 23 2019 1:30AM
505004AtmosphericKTA 5 729956NWAug 23 2019 1:30AM
505004RoadwayKTA 5Unavailable     Aug 23 2019 1:30AM
505004RoadwayKTA 5Unavailable     Aug 23 2019 1:30AM
505005AtmosphericKTA 6 729522NEAug 23 2019 1:30AM
505005Approach KTA 679     Aug 23 2019 1:30AM
505005DeckKTA 675     Aug 23 2019 1:30AM
505006AtmosphericKTA 7 739424EAug 23 2019 1:30AM
505006ApproachKTA 7Unavailable     Aug 23 2019 1:30AM
505006DeckKTA 7Unavailable     Aug 23 2019 1:30AM
505007AtmosphericKTA 8 729844EAug 23 2019 1:30AM
505007ApproachKTA 877     Aug 23 2019 1:30AM
505007DeckKTA 877     Aug 23 2019 1:30AM
505008AtmosphericKTA 9 731024EAug 23 2019 1:30AM
505008ApproachKTA 979     Aug 23 2019 1:30AM
505008DeckKTA 977     Aug 23 2019 1:30AM
505010AtmosphericWebb 729744NNEAug 23 2019 1:40AM
505010DeckWebb73     Aug 23 2019 1:40AM
505010NullWebb75     Aug 23 2019 1:40AM
505014AtmosphericI-135 728926EAug 23 2019 1:35AM
505014ApproachI-13575     Aug 23 2019 1:45AM
505014DeckI-13577     Aug 23 2019 1:45AM
540000AtmosphericBlue Rapids 709425ENEAug 23 2019 1:40AM
540000DeckBlue Rapids73     Aug 23 2019 1:40AM
540000DepartureBlue Rapids77     Aug 23 2019 1:40AM
540001AtmosphericSabetha 688023ESEAug 23 2019 1:40AM
540001ApproachSabetha73     Aug 23 2019 1:40AM
540001DeckSabetha72     Aug 23 2019 1:40AM
540002AtmosphericWestgate 738536EAug 23 2019 1:40AM
540002DeckWestgate77     Aug 23 2019 1:40AM
540002DepartureWestgateUnavailable     Aug 23 2019 1:40AM
540003AtmosphericEmporia      Aug 22 2019 8:05PM
540003ApproachEmporia      Aug 22 2019 8:05PM
540003DeckEmporia      Aug 22 2019 8:05PM
540005AtmosphericLawrence 738824NNEAug 23 2019 1:40AM
540005ApproachLawrence77     Aug 23 2019 1:40AM
540005DeckLawrence77     Aug 23 2019 1:40AM
540006AtmosphericTroy      Aug 22 2019 9:25PM
540006DeckTroy      Aug 22 2019 9:25PM
540006DepartureTroy      Aug 22 2019 9:25PM
540007AtmosphericManhattan 729423NEAug 23 2019 1:40AM
540007DepartureManhattan75     Aug 23 2019 1:40AM
540007DeckManhattan79     Aug 23 2019 1:40AM
541001AtmosphericSyracuse 7087812SEAug 23 2019 1:40AM
541001Out of Service for WinterSyracuse81     Aug 23 2019 1:40AM
541001DeckSyracuse79     Aug 23 2019 1:40AM
541002AtmosphericLiberal 7093510ESEAug 23 2019 1:40AM
541002ApproachLiberalUnavailable     Aug 23 2019 1:40AM
541002DeckLiberalUnavailable     Aug 23 2019 1:40AM
541003AtmosphericFord 709479ESEAug 23 2019 1:40AM
541003DeckFord73     Aug 23 2019 1:40AM
541003DepartureFord75     Aug 23 2019 1:40AM
541004AtmosphericScott 6687912WSWAug 23 2019 1:40AM
541004DepartureScott77     Aug 23 2019 1:40AM
541005AtmosphericNess 668636SEAug 23 2019 1:40AM
541005DeckNess75     Aug 23 2019 1:40AM
541005DepartureNess79     Aug 23 2019 1:40AM
543000AtmosphericJunction City 739511NNEAug 23 2019 1:40AM
543000ApproachJunction City52     Aug 23 2019 1:40AM
543000DeckJunction City50     Aug 23 2019 1:40AM
543001AtmosphericEllsworth 689844SEAug 23 2019 1:40AM
543001RoadwayEllsworth73     Aug 23 2019 1:40AM
543002AtmosphericMcPherson 689834EAug 23 2019 1:40AM
543002ApproachMcPherson75     Aug 23 2019 1:40AM
543002DeckMcPherson72     Aug 23 2019 1:40AM
543003AtmosphericSalina 707412ENEAug 23 2019 1:40AM
543003DepartureSalina77     Aug 23 2019 1:40AM
543003RoadwaySalina73     Aug 23 2019 1:40AM
543005AtmosphericPeabody 709400SSWAug 23 2019 1:40AM
543005ApproachPeabody75     Aug 23 2019 1:40AM
543005DeckPeabodyUnavailable     Aug 23 2019 1:40AM
560000AtmosphericEdson 6879412SSEAug 23 2019 1:40AM
560000RoadwayEdson77     Aug 23 2019 1:40AM
560000RoadwayEdson77     Aug 23 2019 1:40AM
560001AtmosphericOakley 6691912SEAug 23 2019 1:40AM
560001ApproachOakley73     Aug 23 2019 1:40AM
560001DeckOakley72     Aug 23 2019 1:40AM
560002AtmosphericAtwood 6882913SSEAug 23 2019 1:40AM
560002ApproachAtwood77     Aug 23 2019 1:40AM
560002DeckAtwoodUnavailable     Aug 23 2019 1:40AM
560003AtmosphericJennings 688724SSEAug 23 2019 1:40AM
560003ApproachJennings79     Aug 23 2019 1:40AM
560003DeckJennings75     Aug 23 2019 1:40AM
560003DeckJennings75     Aug 23 2019 1:40AM
560004AtmosphericWakeeney 668767SEAug 23 2019 1:40AM
560004ApproachWakeeney72     Aug 23 2019 1:40AM
560004DeckWakeeney72     Aug 23 2019 1:40AM
560005AtmosphericWalker 688146ESEAug 23 2019 1:40AM
560005ApproachWalker75     Aug 23 2019 1:40AM
560005DeckWalker72     Aug 23 2019 1:40AM
560006AtmosphericBow Creek(Stockton) 689912NEAug 23 2019 1:40AM
560006ApproachBow Creek(Stockton)77     Aug 23 2019 1:40AM
560006DeckBow Creek(Stockton)73     Aug 23 2019 1:40AM
560007AtmosphericLebanon 639145SEAug 23 2019 1:40AM
560007ApproachLebanon73     Aug 23 2019 1:40AM
560007DeckLebanon70     Aug 23 2019 1:40AM
560008AtmosphericWallace 7099320WAug 23 2019 1:40AM
560008ApproachWallace68     Aug 23 2019 1:40AM
560008DeckWallace66     Aug 23 2019 1:40AM
572000AtmosphericGreat Bend 689544ESEAug 23 2019 1:40AM
572000ApproachGreat Bend73     Aug 23 2019 1:40AM
572000DeckGreat Bend70     Aug 23 2019 1:40AM
572001AtmosphericPratt 706300ENEAug 23 2019 1:40AM
572001ApproachPratt73     Aug 23 2019 1:40AM
572001DeckPratt72     Aug 23 2019 1:40AM
572002AtmosphericAnthony 728646NEAug 23 2019 1:40AM
572002ApproachAnthony77     Aug 23 2019 1:40AM
572002DeckAnthony75     Aug 23 2019 1:40AM
573000AtmosphericEureka 729624ENEAug 23 2019 1:40AM
573000DeckEureka79     Aug 23 2019 1:40AM
573000DepartureEureka75     Aug 23 2019 1:40AM
573001AtmosphericGarnett 739212NNWAug 23 2019 1:40AM
573001ApproachGarnett77     Aug 23 2019 1:40AM
573001DeckGarnett77     Aug 23 2019 1:40AM
573002AtmosphericCaney 725902ENEAug 23 2019 1:35AM
573002RoadwayCaney77     Aug 23 2019 1:35AM
573003AtmosphericChetopa 7010011NEAug 23 2019 1:40AM
573003DeckChetopa79     Aug 23 2019 1:40AM
573003DeckChetopa79     Aug 23 2019 1:40AM
573003DepartureChetopa79     Aug 23 2019 1:40AM
573004AtmosphericChanute 739346EAug 23 2019 1:40AM
573004ApproachChanute81     Aug 23 2019 1:40AM
573004DeckChanute77     Aug 23 2019 1:40AM